Погода Нижний Чир

Погода Нижний Чир : погода сейчас, прогноз погоды и архив. Всё, что Вы хотите узнать о погоде Нижний Чир!

Хотите узнать прогноз погоды Нижний Чир? Тогда Вам сюда: Погода Нижний Чир

Поиск расширенной информации на нашем сайте:

Другие новости

Новости СМИ2

Главная страница сайта

Новости сайта

03.07.2017

Напоминаем, что на нашем специализированном сайте Метеоцентр.Азия вы можете получить высокодетализированные автоматические прогнозы погоды по пунктам России, СНГ и мира в авиационном формате (включающие направление и скорость ветра, видимость, явления погоды, количество и форму облачности, нижнюю и верхнюю границу облачности).


Погода Нижний Чир - сегодня

Время (UTC), дата Ветер
(°,м/с) 
Видим.   Явления Облачность Т
(°С)
Тd
(°С)
f(%) Тe
(°С)
Pmin
(гПа)
dP
(гПа)
Po
(мм)
O2
(г/м3)
Тmin Tmax R s Состояние
почвы
12 09.12.17 150 (ЮВ) 20000 м    9/9 600 м 
[Sc]
+0.3 -3.9 73 -1  1023.4  -0.4  761  307           
15 09.12.17 140 (ЮВ) 20000 м    10/10 600 м 
[Sc]
+0.1 -2.4 83 -2  1022.8  -0.5  760  306    +0.3       
18 09.12.17 150 (ЮВ) 20000 м    10/10 600 м 
[Sc]
+0.6 -1.9 83 -1  1022.6  -0.2  760  306           
21 09.12.17 180 (Ю) 10 км  слаб. дождь  10/10 300 м 
[Frnb|Ns]
+0.8 -0.8 89 -2  1021.9  -0.7  759  305           
00 10.12.17 180 (Ю) 10 км    10/1 600 м верхняя 
[Cu med, cong|Ci sp]
+1.2 -0.1 91 -2    -0.3             
03 10.12.17 210 (ЮЗ) 10 км    9/9 600 м 
[Sc]
+1.7 +0.3 90 -1  1021.3  -0.3  759  304  -0.3    0.4    замёрзшая 
06 10.12.17 190 (Ю) 6-10{10}  10 км    9/9 600 м 
[Sc]
+2.9 +0.1 82 1020.9  -0.3  759  303           
09 10.12.17 210 (ЮЗ) 9-11{12}  20000 м    3/1 600 м средняя, верхняя 
[Cu med, cong|Ac trans|Ci fib]
+5.7 +0.7 70 +2  1020.6  -0.2  759  299           
12 10.12.17 190 (Ю) 6{13}  20000 м    3/0 верхняя 
[Ci sp]
+7.2 +1.1 65 +5  1019.8  -0.7  758  297           
15 10.12.17 170 (Ю) 20000 м    3/0 верхняя 
[Ci fib]
+3.6 -0.2 76 +2  1019.6  -0.3  758  301    +7.7       
18 10.12.17 150 (ЮВ) 20000 м    4/0 верхняя 
[Ci]
+1.2 -0.2 90 -2  1019.3  -0.4  758  304           
21 10.12.17 140 (ЮВ) 7-10{10}  10 км    10/10 600 м 
[Sc]
+1.7 +0.6 92 -2  1019  -0.2  757  303           
00 11.12.17 120 (ЮВ) 7{12}  10 км    10/10 600 м 
[Sc]
+1.2 +0.2 93 -2  1017.6  -1.4  756  303           
03 11.12.17 170 (Ю) 7-10  20000 м    10/10 600 м 
[Sc]
+2.5 +1.3 92 -1  1019.3  1.7  758  302  +0.9         
06 11.12.17 200 (Ю) 6{11}  20000 м  {ливн. осадки}  10/10 300 м 
[St]
+3.7 +2.4 91 +1  1021.1  1.8  759  301           
09 11.12.17 240 (ЮЗ) 7-11{13}  20000 м    9/9 600 м 
[Sc diur, vesp]
+3.5 -1.5 70 1023.6  2.4  761  303           
12 11.12.17 220 (ЮЗ) 5{11}  20000 м    3/1 600 м средняя 
[Sc|Ac trans]
+3.8 -1.4 69 +1  1024  0.4  761  303           
15 11.12.17 210 (ЮЗ) 20000 м    1/0 средняя 
[Ac trans]
+1 -2.4 78 -1  1026.3  2.2  763  307    +4  0.9     
18 11.12.17 190 (Ю) 20000 м    10/10 600 м 
[Sc]
+1 -1 86 -2  1026.7  0.4  763  306           
21 11.12.17 190 (Ю) 20000 м    10/10 600 м 
[Sc]
+2.1 -1.5 77 -1  1026.3  -0.4  763  305           
00 12.12.17 190 (Ю) 20000 м    3/3 600 м 
[Sc]
+1.7 -1.1 82 -1  1025.9  -0.3  762  305           
03 12.12.17 190 (Ю) 5{10}  20000 м    10/10 600 м 
[Sc]
+2.8 -0.2 81 1025.1  -0.8  762  304  +0.1         
06 12.12.17 180 (Ю) 4000 м  слаб. дождь  10/1 300 м верхняя 
[Cu Sc|Cs]
+2.9 +1.7 92   -0.3             
09 12.12.17 200 (Ю) 5{10}  10 км  слаб. дождь  10/10 300 м 
[Frnb|Ns]
+4.2 +2.7 90 +2  1024.2  -0.6  761  302           
12 12.12.17 190 (Ю) 10 км  слаб. дождь  10/10 300 м 
[Frnb|Ns]
+4.8 +3.3 90 +2  1023.2  -0.9  761  301           
Время (UTC), дата Ветер
(°,м/с) 
Видим.   Явления Облачность Т
(°С)
Тd
(°С)
f(%) Тe
(°С)
Pmin
(гПа)
dP
(гПа)
Po
(мм)
O2
(г/м3)
Тmin Tmax R s Состояние
почвы

Для получения пояснительной информации подведите курсор к названию столбца.

ПОГОДА Нижний Чир - архив

Всё, что Вы хотите узнать о погоде Нижний Чир - удобно и подробно!

Выберите нужную дату (начиная с 1 января 2015* года) и нажмите кнопку "Найти".
Будут отображены архивные сводки погоды по пункту Нижний Чир, начиная с указанной даты.


Отображать данные в формате CSV (для использования в таблицах Excel)


Внимание! Наш архив погоды предназначен исключительно для личного некоммерческого использования в познавательных целях. Если Вам необходимы официальные справки о состоянии погоды (для производственных, юридических, коммерческих и т.п. целей), обращайтесь в органы Росгидромета.

*Примечание: данная дата относится к архиву по метеостанциям СССР (Россия, СНГ, Балтия).
Архив по метеостанциям Зарубежной Европы и Азии (кроме Китая) хранится 10 дней, по другим регионам земного шара (Китай, Африка, Америка, Австралия, Океания) - 1 день.

Нижний Чир - район местоположения метеостанции


Название, широта, долгота, высота метеостанции:
Нижний Чир 48.3°ш. 43.1°д. 68 м над ур. моря [Российская Федерация]

Дополнительная информация

В oтличие oт бoльшинства пoгoдных сайтoв мы публикуем пoдрoбную метеoинфoрмацию в детальнoм прoфессиoнальнoм фoрмате.

Характеристики температуры и влажнoсти вoздуха измеряются на высoте 2 м в тени вдали oт зданий и деревьев.
Скoрoсть ветра измеряется на высoте 10 м (на урoвне рoста челoвека скoрoсть ветра ниже в 1.5-2 раза). Если метеoстанция нахoдится в гoрoде или в лесу, тo скoрoсть ветра занижена на 2-4 м/с пo сравнению с oткрытым местoм. Скoрoсть ветра над акватoриями крупных рек и oзёр, а также на вершинах хoлмoв на 2-5 м/с выше, чем в oбычных услoвиях.
Атмoсфернoе давление в разных тoчках местнoсти мoжет значительнo oтличаться oт давления на метеoстанции, в зависимoсти oт услoвий рельефа (при пoдъёме на 10 м давление пoнижается примернo на 1 мм рт.ст.).